This is the latest recevied weather packets stored in our database for station/object AC4AG. If no packets are shown the sender has not sent any weather packets the latest 10 day(s).
| Time | Temp. | Humidity | Pressure | Rain* | Wind** | Luminosity | Snow |
|---|---|---|---|---|---|---|---|
| 1777657332 | 16.67° C | 56% | 1013.9 hPa | 0 mm | - | 278 W/m² | - |
| 1777657030 | 16.11° C | 56% | 1014 hPa | 0 mm | - | 886 W/m² | - |
| 1777656727 | 16.67° C | 53% | 1013.9 hPa | 0 mm | - | 912 W/m² | - |
| 1777656423 | 16.11° C | 56% | 1014 hPa | 0 mm | - | 941 W/m² | - |
| 1777656118 | 16.11° C | 53% | 1014.2 hPa | 0 mm | - | 975 W/m² | - |
| 1777655814 | 16.11° C | 53% | 1014.1 hPa | 0 mm | - | 716 W/m² | - |
| 1777655511 | 16.11° C | 55% | 1014.2 hPa | 0 mm | - | 907 W/m² | - |
| 1777655208 | 16.11° C | 54% | 1014.1 hPa | 0 mm | - | 912 W/m² | - |
| 1777654905 | 16.11° C | 54% | 1014 hPa | 0 mm | - | 823 W/m² | - |
| 1777654602 | 16.11° C | 53% | 1014.1 hPa | 0 mm | - | 790 W/m² | - |
| 1777654299 | 16.11° C | 54% | 1014.2 hPa | 0 mm | - | 909 W/m² | - |
| 1777653998 | 15.56° C | 54% | 1014.2 hPa | 0 mm | - | 897 W/m² | - |
| 1777653694 | 15.56° C | 58% | 1014.3 hPa | 0 mm | - | 888 W/m² | - |
| 1777653390 | 15° C | 55% | 1014 hPa | 0 mm | - | 692 W/m² | - |
| 1777653088 | 15° C | 54% | 1014.4 hPa | 0 mm | - | 872 W/m² | - |
| 1777652783 | 15.56° C | 54% | 1014.2 hPa | 0 mm | - | 861 W/m² | - |
| 1777652480 | 15° C | 55% | 1014.4 hPa | 0 mm | - | 825 W/m² | - |
| 1777652178 | 15° C | 55% | 1014.5 hPa | 0 mm | - | 824 W/m² | - |
| 1777651875 | 15° C | 55% | 1014.5 hPa | 0 mm | - | 794 W/m² | - |
| 1777651571 | 15° C | 55% | 1014.8 hPa | 0 mm | - | 822 W/m² | - |
| 1777651269 | 15° C | 55% | 1014.4 hPa | 0 mm | - | 814 W/m² | - |
| 1777650965 | 15° C | 55% | 1014.4 hPa | 0 mm | - | 805 W/m² | - |
| 1777650662 | 14.44° C | 56% | 1014.4 hPa | 0 mm | - | 737 W/m² | - |
| 1777650359 | 14.44° C | 57% | 1014.4 hPa | 0 mm | - | 779 W/m² | - |
| 1777650056 | 14.44° C | 55% | 1014.4 hPa | 0 mm | - | 764 W/m² | - |
* Rain latest hour (hover to see other rain measurements)
** Current wind speed in m/s (hover to see current wind gust speed)